Weather History for Montgomery, NY

Change the Weather History Date:

Monday, October 22, 2012

  Actual Average (KPOU) Record (KPOU)
Temperature  
Mean Temperature 54 °F 49 °F  
Max Temperature 66 °F 61 °F 85 °F (1979)
Min Temperature 41 °F 37 °F 22 °F (1983)
Degree Days  
Heating Degree Days 12 16  
Month to date heating degree days 279  
Since 1 July heating degree days 419  
Cooling Degree Days 0 0  
Month to date cooling degree days 0  
Year to date cooling degree days 668  
Growing Degree Days 4 (Base 50)    
Moisture  
Dew Point 40 °F    
Average Humidity 62    
Maximum Humidity 86    
Minimum Humidity 40    
Precipitation  
Precipitation 0.00 in 0.14 in 1.13 in (2005)
Month to date precipitation 3.26  
Year to date precipitation 38.32  
Sea Level Pressure  
Sea Level Pressure 30.05 in    
Wind  
Wind Speed 7 mph (WSW)    
Max Wind Speed 12 mph    
Max Gust Speed 18 mph    
Visibility 10 miles    
Events      
T = Trace of Precipitation, MM = Missing Value Source: NWS Daily Summary

Daily Weather History Graph

Daily Weather History Graph

Search for Another Location

Airport:

Trip Planner

Search our weather history database for the weather conditions in past years. The results will help you decide how hot, cold, wet, or windy it might be!

Date:

Astronomy

Oct. 22, 2012 Rise Set
Actual Time 7:17 AM EDT 6:04 PM EDT
Civil Twilight 6:49 AM EDT 6:32 PM EDT
Nautical Twilight 6:16 AM EDT 7:05 PM EDT
Astronomical Twilight 5:44 AM EDT 7:37 PM EDT
Moon 2:15 PM EDT (10/22) No Moon Set
Length of Visible Light 11h 43m
Length of Day
10h 47m
First Quarter, 56% of the Moon is Illuminated
Oct 22
First Quarter
Oct 29
Full
Nov 6
Last Quarter
Nov 13
New
Nov 20
First Quarter

Hourly Weather History & Observations

Time (EDT) Temp. Windchill Dew Point Humidity Pressure Visibility Wind Dir Wind Speed Gust Speed Precip Events Conditions
12:54 AM 51.1 °F - 37.0 °F 59% 30.01 in 10.0 mi West 8.1 mph - N/A   Clear
1:54 AM 46.0 °F 41.9 °F 37.9 °F 73% 30.02 in 10.0 mi SW 8.1 mph - N/A   Clear
2:54 AM 45.0 °F 40.6 °F 37.9 °F 76% 30.04 in 10.0 mi SW 8.1 mph - N/A   Clear
3:54 AM 44.1 °F 40.8 °F 37.9 °F 79% 30.04 in 10.0 mi SW 5.8 mph - N/A   Clear
4:54 AM 43.0 °F 38.8 °F 37.9 °F 82% 30.05 in 10.0 mi SW 6.9 mph - N/A   Clear
5:54 AM 45.0 °F 40.6 °F 39.0 °F 80% 30.05 in 10.0 mi WSW 8.1 mph - N/A   Clear
6:54 AM 41.0 °F 39.0 °F 37.0 °F 86% 30.06 in 10.0 mi South 3.5 mph - N/A   Clear
7:54 AM 44.1 °F 41.5 °F 39.0 °F 82% 30.09 in 10.0 mi SW 4.6 mph - N/A   Clear
8:54 AM 48.9 °F - 42.1 °F 77% 30.10 in 10.0 mi South 6.9 mph - N/A   Clear
9:54 AM 55.0 °F - 43.0 °F 64% 30.10 in 10.0 mi West 4.6 mph - N/A   Clear
10:54 AM 57.9 °F - 42.1 °F 56% 30.09 in 10.0 mi NW 9.2 mph 17.3 mph N/A   Partly Cloudy
11:54 AM 61.0 °F - 41.0 °F 48% 30.07 in 10.0 mi NW 9.2 mph 18.4 mph N/A   Clear
12:54 PM 64.0 °F - 42.1 °F 45% 30.04 in 10.0 mi WNW 11.5 mph 16.1 mph N/A   Clear
1:54 PM 64.9 °F - 42.1 °F 43% 30.02 in 10.0 mi West 8.1 mph 18.4 mph N/A   Clear
2:54 PM 66.9 °F - 43.0 °F 42% 30.01 in 10.0 mi Variable 6.9 mph - N/A   Clear
3:54 PM 66.9 °F - 42.1 °F 40% 29.99 in 10.0 mi WNW 11.5 mph 17.3 mph N/A   Clear
4:54 PM 66.0 °F - 43.0 °F 43% 30.00 in 10.0 mi WNW 11.5 mph - N/A   Clear
5:54 PM 64.0 °F - 41.0 °F 43% 30.01 in 10.0 mi WNW 9.2 mph - N/A   Clear
6:54 PM 63.0 °F - 39.9 °F 43% 30.03 in 10.0 mi West 5.8 mph - N/A   Clear
7:54 PM 55.9 °F - 41.0 °F 57% 30.05 in 10.0 mi SSW 5.8 mph - N/A   Clear
8:54 PM 59.0 °F - 41.0 °F 51% 30.06 in 10.0 mi Calm Calm - N/A   Clear
9:54 PM 52.0 °F - 41.0 °F 66% 30.06 in 10.0 mi South 5.8 mph - N/A   Clear
10:54 PM 48.0 °F - 41.0 °F 77% 30.07 in 10.0 mi Calm Calm - N/A   Clear
11:54 PM 45.0 °F - 41.0 °F 86% 30.07 in 10.0 mi Calm Calm - N/A   Clear